Date,TemperatureHighF,TemperatureAvgF,TemperatureLowF,DewpointHighF,DewpointAvgF,DewpointLowF,HumidityHigh,HumidityAvg,HumidityLow,PressureMaxIn,PressureMinIn,WindSpeedMaxMPH,WindSpeedAvgMPH,GustSpeedMaxMPH,PrecipitationSumIn
2013-3-1,52.0,49.8,45.0,-99.9,-99.9,-99.9,0,0,100,0.00,40.00,23,11,34,0.00
2013-3-2,50.0,47.0,43.0,-99.9,-99.9,-99.9,0,0,100,0.00,40.00,18,8,23,0.00
2013-3-3,53.0,43.7,37.0,-99.9,-99.9,-99.9,0,0,100,0.00,40.00,20,8,27,0.00
2013-3-4,54.0,44.3,38.0,-99.9,-99.9,-99.9,0,0,100,0.00,40.00,30,13,35,0.00
2013-3-5,46.0,43.4,42.0,-99.9,-99.9,-99.9,0,0,100,0.00,40.00,18,8,21,0.00
2013-3-6,49.0,45.1,43.0,-99.9,-99.9,-99.9,0,0,100,0.00,40.00,28,14,35,0.00
2013-3-7,54.0,45.7,40.0,-99.9,-99.9,-99.9,0,0,100,0.00,40.00,14,6,17,0.00
2013-3-8,56.0,43.8,36.0,-99.9,-99.9,-99.9,0,0,100,0.00,40.00,16,7,20,0.00
2013-3-9,59.0,45.0,39.0,-99.9,-99.9,-99.9,0,0,100,0.00,40.00,18,6,20,0.00
2013-3-10,49.0,44.7,39.0,-99.9,-99.9,-99.9,0,0,100,0.00,40.00,9,4,10,0.00
2013-3-11,51.0,48.6,47.0,-99.9,-99.9,-99.9,0,0,100,0.00,40.00,7,2,9,0.00
2013-3-12,53.0,48.0,46.0,-99.9,-99.9,-99.9,0,0,100,0.00,40.00,18,7,21,0.00
2013-3-13,56.0,48.9,45.0,-99.9,-99.9,-99.9,0,0,100,0.00,40.00,14,4,18,0.00
2013-3-14,52.0,48.9,47.0,-99.9,-99.9,-99.9,0,0,100,0.00,40.00,26,15,34,0.00
2013-3-15,52.0,49.7,47.0,-99.9,-99.9,-99.9,0,0,100,0.00,40.00,21,9,26,0.00
2013-3-16,49.0,46.8,43.0,-99.9,-99.9,-99.9,0,0,100,0.00,40.00,31,14,35,0.00
2013-3-17,53.0,45.5,41.0,-99.9,-99.9,-99.9,0,0,100,0.00,40.00,16,8,27,0.00
2013-3-18,55.0,44.2,36.0,-99.9,-99.9,-99.9,0,0,100,0.00,40.00,21,8,24,0.00
2013-3-19,53.0,48.0,45.0,-99.9,-99.9,-99.9,0,0,100,0.00,40.00,38,13,48,0.00
2013-3-20,52.0,47.6,44.0,-99.9,-99.9,-99.9,0,0,100,0.00,40.00,50,28,70,0.00
2013-3-21,50.0,44.5,41.0,-99.9,-99.9,-99.9,0,0,100,0.00,40.00,25,12,34,0.00
2013-3-22,52.0,42.8,37.0,-99.9,-99.9,-99.9,0,0,100,0.00,40.00,20,7,32,0.00
2013-3-23,53.0,42.2,36.0,-99.9,-99.9,-99.9,0,0,100,0.00,40.00,18,8,21,0.00
2013-3-24,56.0,46.6,42.0,-99.9,-99.9,-99.9,0,0,100,0.00,40.00,13,8,16,0.00
2013-3-25,53.0,47.2,42.0,-99.9,-99.9,-99.9,0,0,100,0.00,40.00,13,6,16,0.00
2013-3-26,51.0,48.1,46.0,-99.9,-99.9,-99.9,0,0,100,0.00,40.00,14,4,17,0.00
2013-3-27,54.0,49.6,46.0,-99.9,-99.9,-99.9,0,0,100,0.00,40.00,12,7,14,0.00
2013-3-28,59.0,51.1,46.0,-99.9,-99.9,-99.9,0,0,100,0.00,40.00,11,4,14,0.00
2013-3-29,59.0,52.3,49.0,-99.9,-99.9,-99.9,0,0,100,0.00,40.00,24,8,28,0.00
2013-3-30,67.0,57.3,48.0,-99.9,-99.9,-99.9,0,0,100,0.00,40.00,37,11,45,0.00
2013-3-31,56.0,52.2,49.0,-99.9,-99.9,-99.9,0,0,100,0.00,40.00,33,13,44,0.00